H1 CPF 2 NER 2020 11 17 9 322 01 glonass129 H2 1106402 9129 37868 2020 11 17 0 0 0 2020 11 20 23 45 0 900 1 1 0 0 0 1 H9 10 0 59170 0.00000 0 1376242.503 -24490996.819 -6883394.368 10 0 59170 900.00000 0 1363781.417 -23444104.690 -9874017.760 10 0 59170 1800.00000 0 1491127.045 -22047838.342 -12672083.845 10 0 59170 2700.00000 0 1799482.481 -20344491.857 -15222999.613 10 0 59170 3600.00000 0 2321109.922 -18385903.548 -17477005.494 10 0 59170 4500.00000 0 3077722.746 -16231377.101 -19390157.960 10 0 59170 5400.00000 0 4079332.743 -13945305.078 -20925194.841 10 0 59170 6300.00000 0 5323602.821 -11594595.449 -22052265.773 10 0 59170 7200.00000 0 6795733.342 -9246010.239 -22749513.300 10 0 59170 8100.00000 0 8468887.400 -6963528.592 -23003493.511 10 0 59170 9000.00000 0 10305137.222 -4805845.045 -22809428.599 10 0 59170 9900.00000 0 12256891.587 -2824107.660 -22171287.233 10 0 59170 10800.00000 0 14268743.919 -1059989.822 -21101692.246 10 0 59170 11700.00000 0 16279662.965 455824.986 -19621658.540 10 0 59170 12600.00000 0 18225433.704 1704683.932 -17760167.495 10 0 59170 13500.00000 0 20041245.865 2680489.973 -15553587.275 10 0 59170 14400.00000 0 21664321.553 3389692.104 -13044951.307 10 0 59170 15300.00000 0 23036472.083 3850743.934 -10283109.930 10 0 59170 16200.00000 0 24106477.502 4093056.147 -7321772.440 10 0 59170 17100.00000 0 24832189.973 4155489.451 -4218458.687 10 0 59170 18000.00000 0 25182274.026 4084453.545 -1033381.071 10 0 59170 18900.00000 0 25137512.095 3931693.854 2171721.260 10 0 59170 19800.00000 0 24691622.019 3751860.380 5334773.505 10 0 59170 20700.00000 0 23851553.604 3599961.625 8394558.767 10 0 59170 21600.00000 0 22637252.901 3528810.959 11291891.635 10 0 59170 22500.00000 0 21080904.837 3586572.610 13970750.001 10 0 59170 23400.00000 0 19225686.161 3814509.999 16379344.240 10 0 59170 24300.00000 0 17124080.589 4245030.458 18471104.448 10 0 59170 25200.00000 0 14835825.647 4900107.984 20205568.007 10 0 59170 26100.00000 0 12425575.602 5790149.997 21549151.661 10 0 59170 27000.00000 0 9960376.103 6913355.858 22475794.350 10 0 59170 27900.00000 0 7507053.653 8255594.860 22967459.343 10 0 59170 28800.00000 0 5129626.499 9790810.119 23014486.395 10 0 59170 29700.00000 0 2886842.596 11481933.446 22615787.200 10 0 59170 30600.00000 0 829945.281 13282275.306 21778879.857 10 0 59170 31500.00000 0 -999241.636 15137334.316 20519760.668 10 0 59170 32400.00000 0 -2569830.514 16986953.271 18862614.356 10 0 59170 33300.00000 0 -3862925.367 18767733.889 16839366.506 10 0 59170 34200.00000 0 -4872171.951 20415611.109 14489085.023 10 0 59170 35100.00000 0 -5603778.999 21868480.369 11857240.322 10 0 59170 36000.00000 0 -6076009.046 23068768.218 8994836.855 10 0 59170 36900.00000 0 -6318159.519 23965838.033 5957431.598 10 0 59170 37800.00000 0 -6369076.525 24518128.746 2804057.758 10 0 59170 38700.00000 0 -6275263.865 24694935.008 -403925.686 10 0 59170 39600.00000 0 -6088667.440 24477751.881 -3604035.701 10 0 59170 40500.00000 0 -5864229.650 23861125.304 -6733893.940 10 0 59170 41400.00000 0 -5657318.672 22852970.533 -9732457.242 10 0 59170 42300.00000 0 -5521143.289 21474343.480 -12541224.157 10 0 59170 43200.00000 0 -5504264.871 19758673.428 -15105392.320 10 0 59170 44100.00000 0 -5648314.095 17750488.790 -17374942.405 10 0 59170 45000.00000 0 -5986011.136 15503689.516 -19305626.025 10 0 59170 45900.00000 0 -6539574.962 13079439.132 -20859837.217 10 0 59170 46800.00000 0 -7319590.409 10543765.627 -22007349.850 10 0 59170 47700.00000 0 -8324381.882 7964972.674 -22725906.278 10 0 59170 48600.00000 0 -9539920.563 5410970.417 -23001645.981 10 0 59170 49500.00000 0 -10940269.148 2946637.940 -22829366.389 10 0 59170 50400.00000 0 -12488544.989 631327.908 -22212611.623 10 0 59170 51300.00000 0 -14138360.599 -1483382.894 -21163588.498 10 0 59170 52200.00000 0 -15835680.255 -3355604.192 -19702912.524 10 0 59170 53100.00000 0 -17521013.961 -4954625.791 -17859190.037 10 0 59170 54000.00000 0 -19131856.080 -6261933.862 -15668445.732 10 0 59170 54900.00000 0 -20605265.872 -7271710.012 -13173407.704 10 0 59170 55800.00000 0 -21880481.499 -7990795.055 -10422664.889 10 0 59170 56700.00000 0 -22901458.010 -8438121.892 -7469714.009 10 0 59170 57600.00000 0 -23619223.341 -8643644.127 -4371915.109 10 0 59170 58500.00000 0 -23993954.241 -8646807.858 -1189376.424 10 0 59170 59400.00000 0 -23996686.077 -8494633.007 2016209.619 10 0 59170 60300.00000 0 -23610585.936 -8239486.429 5182756.805 10 0 59170 61200.00000 0 -22831736.778 -7936641.471 8248979.093 10 0 59170 62100.00000 0 -21669400.773 -7641727.123 11155565.680 10 0 59170 63000.00000 0 -20145751.491 -7408173.999 13846315.320 10 0 59170 63900.00000 0 -18295086.466 -7284764.101 16269208.969 10 0 59170 64800.00000 0 -16162552.837 -7313386.696 18377401.387 10 0 59170 65700.00000 0 -13802438.486 -7527093.844 20130113.898 10 0 59170 66600.00000 0 -11276098.716 -7948536.616 21493412.357 10 0 59170 67500.00000 0 -8649603.041 -8588847.382 22440856.541 10 0 59170 68400.00000 0 -5991197.934 -9447015.238 22954009.324 10 0 59170 69300.00000 0 -3368688.817 -10509781.568 23022796.326 10 0 59170 70200.00000 0 -846847.873 -11752061.467 22645709.127 10 0 59170 71100.00000 0 1515046.701 -13137875.347 21829847.668 10 0 59170 72000.00000 0 3665439.263 -14621753.922 20590800.033 10 0 59170 72900.00000 0 5562401.674 -16150560.238 18952360.524 10 0 59170 73800.00000 0 7175135.953 -17665654.800 16946089.717 10 0 59170 74700.00000 0 8485012.039 -19105315.038 14610723.140 10 0 59170 75600.00000 0 9486097.064 -20407309.165 11991438.122 10 0 59170 76500.00000 0 10185153.378 -21511517.166 9138991.295 10 0 59170 77400.00000 0 10601104.667 -22362488.733 6108742.224 10 0 59170 78300.00000 0 10763992.015 -22911829.808 2959581.267 10 0 59170 79200.00000 0 10713463.515 -23120315.801 -247217.762 10 0 59170 80100.00000 0 10496861.175 -22959640.459 -3449197.405 10 0 59170 81000.00000 0 10166986.517 -22413724.472 -6583944.606 10 0 59170 81900.00000 0 9779640.445 -21479526.329 -9590321.788 10 0 59170 82800.00000 0 9391043.018 -20167319.215 -12409675.218 10 0 59170 83700.00000 0 9055244.253 -18500420.608 -14986995.426 10 0 59170 84600.00000 0 8821637.663 -16514384.782 -17272005.352 10 0 59170 85500.00000 0 8732683.737 -14255691.685 -19220153.453 10 0 59171 0.00000 0 8821941.513 -11779987.242 -20793491.312 10 0 59171 900.00000 0 9112493.277 -9149949.082 -21961418.028 10 0 59171 1800.00000 0 9615828.755 -6432868.315 -22701276.280 10 0 59171 2700.00000 0 10331238.421 -3698048.821 -22998789.008 10 0 59171 3600.00000 0 11245739.354 -1014133.442 -22848328.531 10 0 59171 4500.00000 0 12334537.788 1553530.667 -22253013.678 10 0 59171 5400.00000 0 13562007.500 3945377.945 -21224634.137 10 0 59171 6300.00000 0 14883142.108 6109858.490 -19783404.600 10 0 59171 7200.00000 0 16245419.116 8005328.269 -17957554.656 10 0 59171 8100.00000 0 17590996.424 9601518.424 -15782763.547 10 0 59171 9000.00000 0 18859148.195 10880524.620 -13301451.797 10 0 59171 9900.00000 0 19988837.152 11837277.641 -10561944.454 10 0 59171 10800.00000 0 20921315.047 12479478.437 -7617522.963 10 0 59171 11700.00000 0 21602642.153 12827003.161 -4525384.679 10 0 59171 12600.00000 0 21986020.333 12910805.825 -1345530.677 10 0 59171 13500.00000 0 22033842.459 12771366.986 1860396.359 10 0 59171 14400.00000 0 21719372.953 12456755.533 5030301.755 10 0 59171 15300.00000 0 21027989.896 12020386.331 8102833.126 10 0 59171 16200.00000 0 19957937.483 11518568.758 11018556.841 10 0 59171 17100.00000 0 18520557.885 11007949.355 13721094.792 10 0 59171 18000.00000 0 16739993.188 10542955.769 16158200.494 10 0 59171 18900.00000 0 14652369.650 10173348.689 18282755.033 10 0 59171 19800.00000 0 12304497.647 9941983.730 20053665.017 10 0 59171 20700.00000 0 9752140.345 9882876.305 21436646.451 10 0 59171 21600.00000 0 7057921.470 10019649.990 22404880.657 10 0 59171 22500.00000 0 4288957.060 10364433.119 22939530.500 10 0 59171 23400.00000 0 1514307.400 10917250.048 23030107.479 10 0 59171 24300.00000 0 -1197647.490 11665933.335 22674682.679 10 0 59171 25200.00000 0 -3781802.098 12586561.858 21879937.086 10 0 59171 26100.00000 0 -6178783.505 13644408.298 20661049.313 10 0 59171 27000.00000 0 -8337172.698 14795358.365 19041421.557 10 0 59171 27900.00000 0 -10215397.670 15987744.487 17052247.301 10 0 59171 28800.00000 0 -11783219.735 17164519.018 14731927.265 10 0 59171 29700.00000 0 -13022750.953 18265677.359 12125343.004 10 0 59171 30600.00000 0 -13928959.620 19230830.194 9283000.456 10 0 59171 31500.00000 0 -14509641.805 20001816.899 6260058.811 10 0 59171 32400.00000 0 -14784859.429 20525249.593 3115262.600 10 0 59171 33300.00000 0 -14785867.871 20754879.416 -90202.497 10 0 59171 34200.00000 0 -14553578.030 20653683.347 -3293907.482 10 0 59171 35100.00000 0 -14136617.953 20195581.330 -6433407.372 10 0 59171 36000.00000 0 -13589076.657 19366708.772 -9447472.797 10 0 59171 36900.00000 0 -12968026.749 18166188.407 -12277300.150 10 0 59171 37800.00000 0 -12330932.301 16606366.899 -14867675.005 10 0 59171 38700.00000 0 -11733053.493 14712504.559 -17168064.398 10 0 59171 39600.00000 0 -11224959.753 12521930.193 -19133615.134 10 0 59171 40500.00000 0 -10850258.337 10082696.074 -20726037.524 10 0 59171 41400.00000 0 -10643635.809 7451789.421 -21914356.595 10 0 59171 42300.00000 0 -10629296.144 4692975.772 -22675515.797 10 0 59171 43200.00000 0 -10819861.895 1874365.036 -22994821.607 10 0 59171 44100.00000 0 -11215784.693 -934197.485 -22866220.913 10 0 59171 45000.00000 0 -11805289.409 -3663805.649 -22292406.540 10 0 59171 45900.00000 0 -12564853.398 -6249120.994 -21284749.949 10 0 59171 46800.00000 0 -13460199.441 -8630845.936 -19863063.517 10 0 59171 47700.00000 0 -14447759.269 -10757939.368 -18055198.209 10 0 59171 48600.00000 0 -15476544.740 -12589483.655 -15896485.628 10 0 59171 49500.00000 0 -16490346.787 -14096127.108 -13429036.287 10 0 59171 50400.00000 0 -17430168.640 -15261043.917 -10700908.721 10 0 59171 51300.00000 0 -18236790.344 -16080374.094 -7765166.382 10 0 59171 52200.00000 0 -18853356.386 -16563127.761 -4678841.170 10 0 59171 53100.00000 0 -19227877.662 -16730560.437 -1501824.257 10 0 59171 54000.00000 0 -19315542.940 -16615048.023 1704294.122 10 0 59171 54900.00000 0 -19080743.255 -16258510.773 4877413.478 10 0 59171 55800.00000 0 -18498724.950 -15710454.011 7956117.652 10 0 59171 56700.00000 0 -17556802.691 -15025708.909 10880852.659 10 0 59171 57600.00000 0 -16255082.183 -14261968.638 13595065.856 10 0 59171 58500.00000 0 -14606662.628 -13477223.232 16046285.443 10 0 59171 59400.00000 0 -12637310.369 -12727200.263 18187120.699 10 0 59171 60300.00000 0 -10384616.707 -12062917.769 19976165.062 10 0 59171 61200.00000 0 -7896673.944 -11528451.026 21378785.864 10 0 59171 62100.00000 0 -5230323.142 -11159005.735 22367786.748 10 0 59171 63000.00000 0 -2449044.353 -10979377.559 22923930.944 10 0 59171 63900.00000 0 379425.286 -11002862.185 23036315.801 10 0 59171 64800.00000 0 3185649.255 -11230661.641 22702591.520 10 0 59171 65700.00000 0 5901121.433 -11651812.456 21929019.397 10 0 59171 66600.00000 0 8460860.899 -12243639.869 20730367.555 10 0 59171 67500.00000 0 10805865.776 -12972720.680 19129644.772 10 0 59171 68400.00000 0 12885325.329 -13796316.200 17157675.859 10 0 59171 69300.00000 0 14658498.785 -14664217.048 14852524.869 10 0 59171 70200.00000 0 16096182.601 -15520923.871 12258775.431 10 0 59171 71100.00000 0 17181704.436 -16308073.476 9426680.359 10 0 59171 72000.00000 0 17911401.398 -16967008.732 6411195.736 10 0 59171 72900.00000 0 18294561.573 -17441383.759 3270917.300 10 0 59171 73800.00000 0 18352830.468 -17679693.539 66939.467 10 0 59171 74700.00000 0 18119106.674 -17637619.575 -3138340.437 10 0 59171 75600.00000 0 17635973.176 -17280090.392 -6282448.676 10 0 59171 76500.00000 0 16953730.819 -16582967.392 -9304067.129 10 0 59171 77400.00000 0 16128117.826 -15534282.364 -12144245.154 10 0 59171 78300.00000 0 15217813.085 -14134972.033 -14747565.926 10 0 59171 79200.00000 0 14281830.354 -12399076.625 -17063242.823 10 0 59171 80100.00000 0 13376915.300 -10353392.586 -19046122.873 10 0 59171 81000.00000 0 12555057.106 -8036593.049 -20657576.575 10 0 59171 81900.00000 0 11861221.149 -5497852.486 -21866255.972 10 0 59171 82800.00000 0 11331399.562 -2795033.313 -22648705.861 10 0 59171 83700.00000 0 10991062.381 7489.347 -22989816.372 10 0 59171 84600.00000 0 10854074.555 2841273.337 -22883108.618 10 0 59171 85500.00000 0 10922123.848 5636422.874 -22330848.642 10 0 59172 0.00000 0 11184682.622 8324260.447 -21343988.526 10 0 59172 900.00000 0 11619503.880 10839945.836 -19941936.722 10 0 59172 1800.00000 0 12193628.481 13124933.706 -18152163.742 10 0 59172 2700.00000 0 12864860.356 15129167.646 -16009651.372 10 0 59172 3600.00000 0 13583645.072 16812921.761 -13556197.677 10 0 59172 4500.00000 0 14295271.857 18148213.794 -10839592.002 10 0 59172 5400.00000 0 14942305.021 19119733.629 -7912676.915 10 0 59172 6300.00000 0 15467141.740 19725250.685 -4832315.813 10 0 59172 7200.00000 0 15814588.155 19975485.703 -1658286.823 10 0 59172 8100.00000 0 15934345.366 19893454.796 1547875.421 10 0 59172 9000.00000 0 15783301.036 19513315.428 4724067.687 10 0 59172 9900.00000 0 15327530.782 18878764.480 7808812.923 10 0 59172 10800.00000 0 14543925.854 18041056.877 10742439.411 10 0 59172 11700.00000 0 13421379.318 17056728.542 13468222.299 10 0 59172 12600.00000 0 11961481.360 15985119.286 15933466.449 10 0 59172 13500.00000 0 10178694.581 14885799.036 18090510.980 10 0 59172 14400.00000 0 8100001.438 13816004.388 19897637.464 10 0 59172 15300.00000 0 5764037.605 12828191.730 21319865.534 10 0 59172 16200.00000 0 3219745.821 11967808.108 22329621.811 10 0 59172 17100.00000 0 524604.196 11271371.976 22907270.194 10 0 59172 18000.00000 0 -2257499.652 10764943.284 23041493.848 10 0 59172 18900.00000 0 -5058662.950 10463046.437 22729521.665 10 0 59172 19800.00000 0 -7809533.829 10368091.249 21977194.428 10 0 59172 20700.00000 0 -10441944.848 10470316.769 20798868.501 10 0 59172 21600.00000 0 -12891506.706 10748261.357 19217157.572 10 0 59172 22500.00000 0 -15100055.809 11169740.762 17262515.685 10 0 59172 23400.00000 0 -17017854.653 11693294.694 14972667.791 10 0 59172 24300.00000 0 -18605453.572 12270042.659 12391896.874 10 0 59172 25200.00000 0 -19835135.782 12845872.136 9570199.711 10 0 59172 26100.00000 0 -20691884.414 13363867.687 6562326.275 10 0 59172 27000.00000 0 -21173829.954 13766878.599 3426720.488 10 0 59172 27900.00000 0 -21292158.200 14000116.018 224382.522 10 0 59172 28800.00000 0 -21070481.575 14013668.525 -2982324.872 10 0 59172 29700.00000 0 -20543699.707 13764827.881 -6130901.990 10 0 59172 30600.00000 0 -19756397.172 13220124.233 -9159944.619 10 0 59172 31500.00000 0 -18760846.420 12356982.230 -12010357.552 10 0 59172 32400.00000 0 -17614701.151 11164925.524 -14626523.814 10 0 59172 33300.00000 0 -16378478.862 9646276.465 -16957405.084 10 0 59172 34200.00000 0 -15112940.446 7816319.654 -18957550.238 10 0 59172 35100.00000 0 -13876479.097 5702921.023 -20587991.194 10 0 59172 36000.00000 0 -12722630.083 3345617.575 -21817007.837 10 0 59172 36900.00000 0 -11697807.532 794215.687 -22620746.700 10 0 59172 37800.00000 0 -10839364.179 -1893043.243 -22983681.526 10 0 59172 38700.00000 0 -10174055.775 -4651672.774 -22898907.198 10 0 59172 39600.00000 0 -9716974.280 -7413394.972 -22368262.111 10 0 59172 40500.00000 0 -9470993.541 -10108754.773 -21402277.645 10 0 59172 41400.00000 0 -9426749.233 -12669785.950 -20019956.828 10 0 59172 42300.00000 0 -9563151.998 -15032617.582 -18248387.697 10 0 59172 43200.00000 0 -9848410.169 -17139912.986 -16122200.029 10 0 59172 44100.00000 0 -10241516.976 -18943040.431 -13682877.015 10 0 59172 45000.00000 0 -10694137.784 -20403886.470 -10977936.273 10 0 59172 45900.00000 0 -11152816.302 -21496238.082 -8059996.878 10 0 59172 46800.00000 0 -11561405.599 -22206678.034 -4985751.138 10 0 59172 47700.00000 0 -11863620.762 -22534958.274 -1814861.578 10 0 59172 48600.00000 0 -12005605.265 -22493838.089 1391195.245 10 0 59172 49500.00000 0 -11938402.995 -22108395.920 4570315.756 10 0 59172 50400.00000 0 -11620232.169 -21414845.531 7660964.352 10 0 59172 51300.00000 0 -11018465.999 -20458907.519 10603353.834 10 0 59172 52200.00000 0 -10111237.340 -19293805.274 13340589.288 10 0 59172 53100.00000 0 -8888600.413 -17977969.614 15819754.250 10 0 59172 54000.00000 0 -7353200.982 -16572547.967 17992919.491 10 0 59172 54900.00000 0 -5520426.620 -15138821.509 19818056.290 10 0 59172 55800.00000 0 -3418030.040 -13735637.209 21259837.869 10 0 59172 56700.00000 0 -1085239.787 -12416960.706 22290314.782 10 0 59172 57600.00000 0 1428606.492 -11229650.887 22889452.229 10 0 59172 58500.00000 0 4065851.632 -10211547.890 23045519.480 10 0 59172 59400.00000 0 6762659.547 -9389953.465 22755324.084 10 0 59172 60300.00000 0 9451420.677 -8780566.672 22024285.969 10 0 59172 61200.00000 0 12063324.827 -8386919.480 20866349.129 10 0 59172 62100.00000 0 14530996.801 -8200336.335 19303731.256 10 0 59172 63000.00000 0 16791087.034 -8200420.372 17366514.459 10 0 59172 63900.00000 0 18786710.454 -8356047.084 15092083.112 10 0 59172 64800.00000 0 20469632.408 -8626824.979 12524417.772 10 0 59172 65700.00000 0 21802110.232 -8964962.976 9713257.049 10 0 59172 66600.00000 0 22758312.569 -9317466.650 6713142.330 10 0 59172 67500.00000 0 23325255.907 -9628570.972 3582362.904 10 0 59172 68400.00000 0 23503217.628 -9842306.445 381821.608 10 0 59172 69300.00000 0 23305606.915 -9905089.104 -2826156.660 10 0 59172 70200.00000 0 22758297.903 -9768223.190 -5979049.583 10 0 59172 71100.00000 0 21898452.564 -9390208.407 -9015370.152 10 0 59172 72000.00000 0 20772882.863 -8738751.700 -11875881.728 10 0 59172 72900.00000 0 19436021.761 -7792395.881 -14504770.063 10 0 59172 73800.00000 0 17947589.585 -6541693.801 -16850747.694 10 0 59172 74700.00000 0 16370055.534 -4989876.364 -18868067.527 10 0 59172 75600.00000 0 14766002.795 -3152984.498 -20517424.704 10 0 59172 76500.00000 0 13195509.692 -1059458.288 -21766728.337 10 0 59172 77400.00000 0 11713658.341 1250800.087 -22591727.664 10 0 59172 78300.00000 0 10368276.327 3727850.551 -22976480.564 10 0 59172 79200.00000 0 9198006.538 6313566.652 -22913655.765 10 0 59172 80100.00000 0 8230785.844 8943836.536 -22404663.645 10 0 59172 81000.00000 0 7482795.460 11551020.997 -21459614.101 10 0 59172 81900.00000 0 6957925.469 14066565.642 -20097103.453 10 0 59172 82800.00000 0 6647774.002 16423657.979 -18343835.680 10 0 59172 83700.00000 0 6532178.806 18559818.802 -16234086.545 10 0 59172 84600.00000 0 6580256.462 20419320.381 -13809022.037 10 0 59172 85500.00000 0 6751903.257 21955331.467 -11115885.394 10 0 59173 0.00000 0 6999692.476 23131701.025 -8207069.350 10 0 59173 900.00000 0 7271086.397 23924307.709 -5139091.849 10 0 59173 1800.00000 0 7510868.909 24321921.266 -1971496.591 10 0 59173 2700.00000 0 7663694.752 24326540.633 1234301.297 10 0 59173 3600.00000 0 7676648.422 23953198.109 4416201.202 10 0 59173 4500.00000 0 7501704.411 23229238.439 7512612.134 10 0 59173 5400.00000 0 7097985.821 22193104.976 10463634.348 10 0 59173 6300.00000 0 6433726.697 20892684.568 13212205.508 10 0 59173 7200.00000 0 5487856.133 19383280.852 15705190.132 10 0 59173 8100.00000 0 4251137.917 17725300.632 17894392.595 10 0 59173 9000.00000 0 2726817.844 15981749.309 19737475.487 10 0 59173 9900.00000 0 930751.128 14215638.944 21198766.858 10 0 59173 10800.00000 0 -1108996.528 12487415.657 22249942.088 10 0 59173 11700.00000 0 -3353059.204 10852512.145 22870568.205 10 0 59173 12600.00000 0 -5752156.520 9359125.881 23048500.726 10 0 59173 13500.00000 0 -8248899.737 8046314.306 22780125.604 10 0 59173 14400.00000 0 -10779945.770 6942485.514 22070441.232 10 0 59173 15300.00000 0 -13278412.180 6064346.945 20932978.091 10 0 59173 16200.00000 0 -15676455.199 5416355.984 19389556.287 10 0 59173 17100.00000 0 -17907905.546 4990695.890 17469883.957 10 0 59173 18000.00000 0 -19910853.634 4767778.907 15211002.456 10 0 59173 18900.00000 0 -21630077.091 4717256.453 12656587.126 10 0 59173 19800.00000 0 -23019209.289 4799494.935 9856115.373 10 0 59173 20700.00000 0 -24042557.403 4967455.914 6863916.789 10 0 59173 21600.00000 0 -24676492.743 5168901.711 3738122.770 10 0 59173 22500.00000 0 -24910353.459 5348833.226 539535.562 10 0 59173 23400.00000 0 -24746820.082 5452056.128 -2669560.968 10 0 59173 24300.00000 0 -24201746.658 5425765.493 -5826624.955 10 0 59173 25200.00000 0 -23303453.466 5222037.522 -8870089.501 10 0 59173 26100.00000 0 -22091510.508 4800120.566 -11740579.261 10 0 59173 27000.00000 0 -20615063.042 4128425.979 -14382085.198 10 0 59173 27900.00000 0 -18930770.183 3186132.036 -16743072.883 10 0 59173 28800.00000 0 -17100444.453 1964330.916 -18777501.069 10 0 59173 29700.00000 0 -15188492.902 466668.358 -20445729.487 10 0 59173 30600.00000 0 -13259268.779 -1290552.429 -21715297.349 10 0 59173 31500.00000 0 -11374446.337 -3278807.873 -22561556.943 10 0 59173 32400.00000 0 -9590529.879 -5458314.259 -22968150.103 10 0 59173 33300.00000 0 -7956601.951 -7779470.852 -22927318.718 10 0 59173 34200.00000 0 -6512404.959 -10184725.090 -22440043.991 10 0 59173 35100.00000 0 -5286835.731 -12610781.401 -21516012.783 10 0 59173 36000.00000 0 -4296914.672 -14991060.838 -20173412.789 10 0 59173 36900.00000 0 -3547270.766 -17258308.353 -18438561.732 10 0 59173 37800.00000 0 -3030161.612 -19347238.734 -16345378.948 10 0 59173 38700.00000 0 -2726025.052 -21197110.923 -13934710.671 10 0 59173 39600.00000 0 -2604536.622 -22754123.712 -11253523.134 10 0 59173 40500.00000 0 -2626125.862 -23973533.712 -8353979.972 10 0 59173 41400.00000 0 -2743885.510 -24821408.384 -5292422.446 10 0 59173 42300.00000 0 -2905791.461 -25275942.349 -2128272.829 10 0 59173 43200.00000 0 -3057138.697 -25328283.689 1077117.552 10 0 59173 44100.00000 0 -3143089.797 -24982837.425 4261653.309 10 0 59173 45000.00000 0 -3111228.380 -24257035.109 7363690.208 10 0 59173 45900.00000 0 -2914010.067 -23180581.587 10323218.009 10 0 59173 46800.00000 0 -2511008.131 -21794211.424 13083008.879 10 0 59173 47700.00000 0 -1870859.938 -20148007.535 15589710.113 10 0 59173 48600.00000 0 -972832.804 -18299352.229 17794861.318 10 0 59173 49500.00000 0 192056.262 -16310595.645 19655817.805 10 0 59173 50400.00000 0 1620414.011 -14246537.818 21136563.622 10 0 59173 51300.00000 0 3296364.570 -12171827.880 22208399.876 10 0 59173 52200.00000 0 5191968.966 -10148387.040 22850496.024 10 0 59173 53100.00000 0 7268154.822 -8232960.982 23050294.152 10 0 59173 54000.00000 0 9476119.774 -6474901.915 22803758.652 10 0 59173 54900.00000 0 11759152.798 -4914271.289 22115466.151 10 0 59173 55800.00000 0 14054800.174 -3580341.340 20998533.151 10 0 59173 56700.00000 0 16297288.577 -2490557.462 19474381.457 10 0 59173 57600.00000 0 18420106.551 -1650004.744 17572344.288 10 0 59173 58500.00000 0 20358638.405 -1051401.456 15329118.779 10 0 59173 59400.00000 0 22052741.627 -675620.487 12788073.583 10 0 59173 60300.00000 0 23449160.403 -492717.664 9998423.118 10 0 59173 61200.00000 0 24503673.686 -463424.539 7014283.077 10 0 59173 62100.00000 0 25182886.718 -541043.234 3893624.521 10 0 59173 63000.00000 0 25465589.231 -673663.427 697146.362 10 0 59173 63900.00000 0 25343621.405 -806607.331 -2512911.538 10 0 59173 64800.00000 0 24822209.406 -884998.137 -5673990.886 10 0 59173 65700.00000 0 23919754.740 -856341.535 -8724448.047 10 0 59173 66600.00000 0 22667085.241 -673008.929 -11604772.026 10 0 59173 67500.00000 0 21106198.589 -294514.823 -14258761.869 10 0 59173 68400.00000 0 19288551.303 310510.493 -16634638.800 10 0 59173 69300.00000 0 17272965.771 1162738.683 -18686069.726 10 0 59173 70200.00000 0 15123244.279 2271020.437 -20373080.958 10 0 59173 71100.00000 0 12905591.442 3631770.901 -21662843.473 10 0 59173 72000.00000 0 10685954.459 5228890.443 -22530313.938 10 0 59173 72900.00000 0 8527393.717 7034224.707 -22958719.130 10 0 59173 73800.00000 0 6487594.424 9008544.821 -22939874.705 10 0 59173 74700.00000 0 4616623.588 11103006.317 -22474332.911 10 0 59173 75600.00000 0 2955025.583 13261025.217 -21571357.361 10 0 59173 76500.00000 0 1532334.729 15420492.126 -20248726.478 10 0 59173 77400.00000 0 366065.374 17516231.107 -18532370.643 10 0 59173 78300.00000 0 -538780.596 19482600.101 -16455851.247 10 0 59173 79200.00000 0 -1189670.836 21256124.037 -14059692.835 10 0 59173 80100.00000 0 -1605968.800 22778050.634 -11390582.323 10 0 59173 81000.00000 0 -1817856.026 23996722.559 -8500451.661 10 0 59173 81900.00000 0 -1864798.330 24869667.596 -5445462.371 10 0 59173 82800.00000 0 -1793622.565 25365320.490 -2284912.210 10 0 59173 83700.00000 0 -1656286.653 25464305.806 919914.576 10 0 59173 84600.00000 0 -1507437.961 25160229.603 4106931.152 10 0 59173 85500.00000 0 -1401863.512 24459948.220 7214443.318 99